Temperature
13 13 14 14 18 19 21 22 21 21 21 20 20 21 22 23 23 22 17 17 17 16 16 17 17 16 16 16 16 16 16 16 16 17 17 17 17 16 16 16 16 16 16 16 16 16 16 16 16
12 13 14 16 19 20 21 21 21 21 20 18 18 19 21 21 18 17 16 16 16 16 16 16 16 16 16 16 16 16 16 16 16 16 16 16 16 16 16 16 16 16 16 16 16 16 16 16 16
12 13 15 17 18 21 22 21 21 20 18 18 19 19 20 19 17 16 16 16 16 16 16 16 16 16 16 16 16 16 16 16 16 16 16 16 16 16 16 16 16 16 15 15 15 15 16 15 15
12 13 15 17 19 20 21 21 20 19 18 18 19 19 17 16 15 15 16 16 15 15 15 15 15 16 16 16 16 16 16 16 16 16 16 16 16 16 15 15 15 15 15 15 15 15 15 15 15
12 15 16 17 19 20 20 19 18 20 19 18 19 20 18 15 15 15 15 15 15 15 15 15 15 15 15 15 15 15 16 16 16 16 16 16 16 15 15 15 15 15 15 15 15 15 15 15 15
13 15 17 18 19 19 19 18 18 19 19 18 18 19 17 15 14 14 14 14 14 14 15 15 15 15 15 15 15 15 15 15 15 15 15 15 15 15 15 15 15 15 15 15 15 15 15 15 15
14 15 17 18 19 19 19 18 18 19 19 18 18 19 16 14 14 14 14 14 14 14 14 14 14 15 15 15 15 15 15 15 15 15 15 15 15 15 15 15 15 15 15 15 15 15 15 15 15
13 16 16 17 18 18 18 17 17 18 19 16 16 19 17 14 14 14 14 14 14 14 14 14 14 14 14 15 15 15 15 15 15 15 15 15 15 15 15 15 15 15 15 15 15 14 15 14 14
12 15 16 17 18 18 17 17 16 15 16 15 15 16 15 14 14 14 13 13 13 14 14 14 14 14 14 14 14 15 15 15 15 15 15 15 15 15 15 15 15 14 14 14 14 14 14 14 14
13 14 16 17 17 17 16 17 16 16 16 16 15 14 14 14 13 13 13 13 13 13 13 13 13 14 14 14 14 14 14 14 14 14 14 14 14 14 14 14 14 14 14 14 14 14 14 14 14
13 14 16 15 15 15 16 16 15 17 17 17 16 14 13 13 13 13 13 13 13 13 13 13 13 13 14 14 14 14 14 14 14 14 14 14 14 14 14 14 14 14 14 14 13 13 13 13 13
13 14 14 15 13 14 15 15 15 16 17 15 15 14 13 13 13 13 13 13 13 13 13 13 13 13 13 13 14 14 14 14 13 13 13 13 13 13 13 13 13 13 13 13 13 13 13 13 13
13 13 13 13 13 13 14 14 15 15 14 14 14 13 13 13 13 13 13 12 12 13 13 13 13 13 13 13 13 13 13 13 13 13 13 13 13 13 13 13 13 13 13 13 13 12 12 12 12
13 13 13 13 13 13 14 14 14 14 13 13 13 13 13 13 12 12 12 12 12 13 13 13 13 13 13 13 13 13 13 13 13 13 13 13 12 12 12 12 12 12 12 12 12 12 12 12 12
12 12 13 13 13 13 13 14 14 13 13 13 13 13 12 12 12 12 12 12 12 13 12 12 12 12 12 12 12 12 12 12 12 12 12 12 12 12 12 12 12 12 12 12 12 11 11 11 11
12 12 12 13 13 13 13 14 15 13 13 13 13 12 12 12 12 12 12 12 12 12 12 12 12 12 12 12 12 12 12 12 12 12 12 11 11 11 11 11 11 11 11 11 11 11 11 11 10
11 11 12 12 13 13 13 14 14 12 12 13 12 12 11 11 11 11 12 12 12 12 12 12 12 12 12 12 11 11 11 11 11 11 11 11 11 11 11 11 11 11 11 11 11 10 10 10 10
11 11 12 12 12 12 13 13 13 12 12 13 12 12 11 11 11 11 11 11 11 12 12 11 11 11 11 11 11 11 11 11 11 11 11 11 11 11 10 10 10 10 10 10 10 10 10 10 9
11 11 11 12 11 12 13 13 13 12 12 12 12 11 11 11 10 11 11 11 11 11 11 11 11 11 11 11 11 11 10 10 10 10 10 10 10 10 10 10 10 10 10 10 9 9 9 9 9
10 10 11 11 11 11 12 12 12 12 11 11 11 11 10 10 9 10 10 10 11 11 11 11 11 11 11 11 11 10 10 10 10 10 10 10 10 10 10 9 9 9 9 9 9 9 9 8 8
10 10 10 10 10 11 11 12 12 12 11 10 9 9 10 9 9 9 9 10 10 10 11 10 10 11 10 10 10 10 10 10 10 9 10 9 9 9 9 9 9 9 9 9 9 8 8 8 8
9 10 10 10 10 10 11 11 13 12 11 10 10 9 9 8 8 8 9 9 10 10 10 10 10 10 10 10 10 10 10 10 10 9 9 9 9 9 9 9 9 9 8 8 8 8 8 8 7
9 9 10 10 10 10 10 10 13 11 11 11 10 9 8 8 8 8 8 9 9 10 10 10 10 10 10 9 9 9 9 9 9 9 9 9 8 8 8 8 8 8 8 8 8 8 7 7 7
8 9 9 9 9 9 11 11 12 11 11 11 11 9 8 7 7 7 7 8 8 9 9 10 9 9 9 9 9 9 9 9 9 9 9 8 8 8 8 8 8 8 8 8 7 7 7 7 6
8 8 8 8 8 10 10 10 11 11 10 10 10 9 8 7 7 7 7 7 8 8 9 9 9 9 9 9 9 9 9 9 9 9 8 8 8 8 8 8 8 7 7 7 7 7 7 6 6
7 8 8 9 9 10 9 9 10 9 8 8 8 8 7 7 6 6 7 7 7 8 8 8 9 9 9 9 9 9 8 8 8 8 8 8 8 8 8 7 7 7 7 7 7 7 6 6 6
7 7 8 8 8 9 10 9 9 8 8 8 8 7 7 6 6 6 6 6 7 7 7 8 8 8 8 8 8 8 8 8 8 8 8 8 8 7 7 7 7 7 7 6 6 6 6 6 6
7 7 7 7 8 9 10 9 10 9 8 8 8 7 6 6 5 5 6 6 6 7 7 7 7 8 8 8 8 8 8 8 8 7 8 7 7 7 7 7 7 7 6 6 6 6 6 5 5
6 6 6 7 8 9 9 10 9 8 8 7 7 6 5 5 5 5 5 6 6 6 6 7 7 7 7 7 7 7 7 7 7 7 7 7 7 7 7 7 6 6 6 6 6 5 5 5 5
6 6 6 6 6 7 9 9 7 7 7 7 6 5 5 4 4 4 5 5 5 5 6 6 6 6 6 7 7 7 7 7 7 7 7 7 7 7 7 6 6 6 6 6 5 5 5 5 4
Wind_Speed
4 4 4 4 6 7 15 11 8 7 6 5 5 6 6 7 4 2 4 6 9 11 13 14 13 13 13 13 13 13 12 12 11 11 11 11 10 10 9 8 8 8 8 7 7 8 7 7 7
4 5 5 5 8 13 13 12 12 9 5 5 5 6 6 5 1 3 5 7 10 11 12 14 14 14 14 14 13 13 13 12 12 11 11 10 10 10 9 8 8 8 7 7 7 7 7 7 7
5 5 6 6 10 15 12 9 11 7 6 6 6 4 4 3 3 3 5 9 10 11 12 13 14 14 14 14 13 13 12 12 11 11 11 10 10 10 9 9 9 8 8 7 7 7 7 6 6
5 5 5 9 17 16 10 5 6 8 7 6 6 4 3 1 2 4 8 10 11 11 12 13 13 13 14 13 13 13 12 12 11 11 10 10 10 10 10 9 9 9 8 8 8 8 7 7 6
4 5 9 12 17 13 9 6 7 9 8 8 7 5 4 2 3 7 9 10 11 11 11 13 13 13 13 13 13 13 12 12 11 11 10 10 10 10 10 9 9 9 9 8 8 7 7 6 6
6 6 10 17 17 12 10 8 7 8 7 6 7 6 3 3 6 8 9 10 10 10 11 12 13 13 13 13 13 12 12 11 11 10 10 10 10 10 9 9 8 8 8 8 7 7 6 6 5
8 8 12 15 15 13 10 9 10 9 9 7 6 5 4 6 7 8 9 9 10 10 10 10 12 12 12 12 12 12 11 11 11 11 11 10 10 10 9 9 8 8 7 7 7 6 6 5 5
6 6 11 13 14 13 8 8 7 9 7 3 5 6 5 7 8 9 9 9 9 8 9 9 10 10 11 11 12 11 11 11 11 11 11 10 10 10 9 8 8 8 7 7 6 6 6 5 5
6 9 14 14 12 9 7 8 6 4 5 4 4 2 2 9 10 10 9 9 8 8 8 8 9 9 9 10 11 11 11 10 10 10 10 8 7 7 7 8 8 8 7 7 6 6 5 4 4
9 13 16 9 8 6 7 8 7 6 7 6 5 4 6 10 12 13 12 12 11 10 8 7 8 8 8 8 8 8 8 8 8 7 7 6 6 6 6 8 8 7 7 6 6 5 3 1 1
10 13 12 9 6 5 6 7 6 8 9 9 9 9 10 12 13 13 13 12 11 10 8 8 8 8 7 6 6 6 6 6 7 7 7 6 6 5 4 4 4 4 4 4 3 3 3 3 2
10 13 10 7 5 5 6 6 7 10 7 4 5 8 11 13 14 14 13 12 10 10 9 8 8 8 7 6 6 6 5 5 5 6 6 5 4 4 3 3 3 3 2 2 2 2 3 3 3
13 10 10 8 6 5 6 8 8 9 6 4 5 8 11 12 13 12 11 11 11 10 9 9 9 8 8 7 5 5 5 5 6 6 5 5 4 3 3 3 2 2 2 2 2 2 2 2 3
10 10 9 9 7 6 7 8 8 9 6 6 8 9 10 11 12 12 12 12 11 10 9 9 9 9 8 7 6 5 6 6 6 5 6 5 4 4 3 3 2 2 2 2 2 2 2 2 2
8 9 9 10 10 6 5 9 10 7 7 8 9 9 9 10 11 12 12 12 11 10 10 9 9 9 9 8 7 6 6 6 5 5 6 5 4 4 3 2 2 2 2 2 2 2 2 2 2
7 10 10 9 10 8 9 13 8 5 8 9 9 9 9 9 11 10 10 10 10 10 10 10 8 9 9 8 7 6 6 6 5 5 5 5 5 4 3 2 2 2 2 2 2 2 2 2 2
8 11 12 8 8 7 11 11 5 4 7 8 7 7 8 8 9 8 9 10 10 11 11 10 10 10 9 8 7 6 6 5 5 5 4 5 4 4 3 2 2 2 2 2 2 2 2 2 2
11 11 11 10 6 8 11 10 5 4 6 7 6 7 7 8 8 7 8 8 9 9 10 11 10 9 9 8 7 6 5 5 4 4 4 5 4 4 3 2 2 1 1 1 1 2 2 2 2
9 10 10 8 5 8 12 11 8 6 6 7 7 7 7 7 6 6 6 7 8 9 10 11 11 11 9 8 7 6 5 5 4 4 4 4 4 4 3 2 2 1 1 1 1 1 2 2 3
9 9 8 4 4 6 9 10 8 7 7 7 7 6 5 4 4 5 6 7 8 10 11 12 12 12 11 8 7 5 5 4 4 4 4 4 4 3 2 2 1 1 1 1 1 1 1 1 2
10 10 8 5 2 4 5 8 8 6 5 4 3 4 4 5 6 6 7 7 8 9 11 11 12 12 12 10 7 6 5 4 4 4 4 4 4 3 3 2 2 1 1 0 0 0 1 1 1
10 8 7 6 6 5 7 7 8 7 6 5 4 4 4 4 5 6 6 7 8 8 8 10 11 12 12 11 10 10 7 6 6 5 4 4 4 4 3 3 2 1 1 1 0 0 1 1 1
6 6 6 7 6 4 7 7 5 6 7 7 5 5 4 4 5 5 6 7 7 7 7 8 11 11 12 11 11 10 8 6 5 5 6 5 4 4 3 3 2 2 1 1 1 0 1 1 1
4 4 3 3 5 7 10 10 6 5 7 6 5 5 4 3 3 4 3 4 5 6 6 7 10 11 11 11 11 10 10 8 8 7 6 5 4 3 4 3 3 2 2 2 1 1 1 1 1
5 6 4 5 6 7 6 8 5 2 3 5 5 4 3 3 2 3 3 4 5 6 7 7 9 10 11 11 11 10 10 9 9 8 7 6 4 4 4 4 3 3 2 2 2 2 2 2 2
8 8 5 5 6 4 5 8 3 1 1 2 3 2 1 1 2 2 3 4 5 6 7 8 9 9 10 11 10 9 9 7 6 7 6 6 5 4 4 4 4 3 3 2 2 2 2 2 2
6 6 3 1 1 3 6 4 3 0 1 1 1 1 1 1 1 2 2 3 4 5 6 7 8 9 9 10 10 9 9 8 7 7 6 5 4 4 5 4 4 4 3 3 3 2 2 2 3
3 4 3 3 5 5 5 6 4 3 2 1 1 1 1 1 0 1 1 2 3 4 5 6 7 7 8 8 8 7 8 8 7 6 6 5 5 4 5 4 4 4 3 3 3 2 3 3 3
4 4 3 3 3 4 5 3 1 3 2 2 1 1 2 1 0 0 0 1 2 3 4 5 6 6 6 7 7 8 7 7 7 6 6 5 5 5 5 5 4 4 3 3 3 3 3 4 4
4 6 5 4 3 4 4 2 2 1 1 1 1 1 1 1 1 0 0 1 1 2 3 3 4 5 5 6 6 7 7 7 6 6 6 5 5 5 5 4 4 4 3 3 3 3 4 4 5
Wind_Direction
208 194 188 191 204 221 230 218 212 194 199 200 193 196 207 204 200 139 95 142 143 144 146 146 140 138 134 131 127 123 120 117 117 120 121 121 118 116 114 111 108 105 103 102 99 96 93 90 88
189 179 188 202 219 220 225 217 211 205 178 162 183 205 209 210 222 97 130 141 145 142 144 143 136 135 132 129 126 122 119 116 114 113 113 114 113 113 110 106 104 103 102 99 94 91 89 88 86
178 200 200 204 221 225 223 206 210 190 179 183 181 202 213 180 151 139 132 146 145 141 141 135 134 133 130 127 125 122 119 116 113 111 109 106 105 105 103 101 97 95 95 96 94 90 88 88 89
182 189 207 223 224 227 232 194 183 179 185 198 195 179 169 108 135 131 139 150 146 142 139 135 133 132 130 126 123 121 119 116 113 111 108 105 102 99 97 94 91 88 86 85 86 85 83 80 82
203 202 206 222 229 226 226 220 199 193 185 190 203 197 170 138 132 139 148 151 146 140 137 136 131 131 130 127 125 122 119 118 115 113 110 106 102 99 95 92 88 84 81 80 79 77 78 76 74
194 209 216 221 223 222 220 213 207 210 200 194 202 203 187 146 150 149 151 150 144 139 137 137 130 127 128 128 125 122 120 119 116 113 109 106 102 97 94 90 86 83 78 74 72 68 68 70 71
209 210 225 226 225 223 218 210 216 214 211 206 200 196 177 162 151 151 151 147 143 141 139 140 140 133 127 126 125 123 121 118 115 112 107 103 100 97 93 89 85 81 77 72 68 66 66 65 66
222 220 227 224 223 224 210 204 220 221 218 192 205 208 185 160 153 153 151 149 145 144 144 145 145 143 141 132 120 119 116 115 113 108 104 102 102 99 93 89 82 80 76 73 69 66 64 62 63
209 224 225 220 222 219 194 204 208 226 196 201 218 254 131 144 156 159 159 158 155 152 150 149 148 145 142 135 129 123 116 114 116 111 106 109 110 104 96 82 80 78 74 70 66 63 59 62 73
204 224 228 227 229 220 199 210 195 198 207 211 207 192 153 159 171 175 177 175 171 166 159 158 154 150 145 139 138 133 129 127 123 120 116 110 104 97 96 88 82 81 78 77 66 58 56 30 50
209 227 229 231 234 227 211 214 206 212 224 223 210 185 172 176 184 188 186 182 177 171 164 164 159 156 150 145 139 132 127 124 121 119 118 114 107 103 96 93 90 87 82 72 64 50 37 27 19
217 230 230 231 228 229 220 212 219 228 237 239 210 181 180 188 192 193 190 184 178 175 172 168 163 159 154 146 137 135 132 128 123 122 123 119 108 100 93 87 84 78 69 55 46 41 38 27 18
221 224 226 230 226 235 231 226 235 239 250 235 192 187 194 198 199 199 194 187 182 180 176 173 170 164 156 147 141 139 136 133 128 124 119 118 116 112 104 93 82 75 64 53 34 34 32 19 15
217 222 226 232 230 233 232 244 242 240 228 206 197 200 202 203 202 198 194 190 186 182 179 175 174 169 160 156 150 143 136 131 126 121 119 121 116 115 113 105 88 73 59 39 28 29 14 10 9
211 219 230 228 229 227 222 244 236 232 213 210 209 207 205 207 204 202 198 194 189 183 178 176 174 169 165 160 153 142 137 135 128 122 124 121 118 120 117 106 92 68 54 40 33 32 17 12 4
201 215 227 225 219 217 217 237 228 216 209 211 211 210 208 207 208 207 201 196 190 184 181 178 172 169 166 158 150 141 139 137 131 129 129 126 123 123 117 107 87 64 52 42 38 16 14 6 352
199 215 222 218 209 206 217 239 227 209 208 208 206 206 207 206 206 205 202 197 192 187 183 179 174 171 166 156 146 141 138 136 134 134 132 132 130 130 123 106 91 82 62 46 37 24 5 356 349
206 214 218 217 200 209 221 235 232 217 217 220 216 212 210 210 209 202 197 194 191 186 183 179 174 170 162 153 145 139 139 140 137 139 138 141 136 137 126 114 104 90 83 58 38 36 17 356 341
214 214 218 220 206 214 227 238 242 235 230 231 225 219 217 218 210 195 190 185 184 182 182 180 175 170 165 162 162 160 160 156 152 147 146 149 146 143 134 125 120 111 97 60 39 31 19 7 343
208 213 217 219 211 220 231 244 241 236 230 228 227 223 218 212 199 191 187 184 185 184 184 185 182 177 176 176 170 165 156 158 155 149 151 158 157 153 148 145 143 138 131 96 54 23 355 1 351
213 212 210 202 207 219 234 243 229 228 218 218 231 231 223 214 209 202 195 191 188 188 189 188 185 182 181 173 158 144 141 146 160 167 166 170 170 164 163 166 156 154 176 171 67 327 319 334 351
215 213 207 195 192 209 210 237 222 212 214 221 228 234 234 229 220 209 203 201 198 194 190 191 187 185 180 175 173 170 176 179 183 175 172 170 174 173 175 175 174 173 179 184 208 281 291 281 310
208 198 203 205 209 225 214 232 230 195 221 231 236 239 241 235 225 216 212 207 200 190 185 187 187 185 181 182 183 183 186 184 171 168 171 172 173 178 180 180 180 185 189 192 202 220 251 268 280
153 145 147 186 204 227 217 217 233 199 221 231 236 239 235 231 222 217 211 202 193 185 181 180 186 185 183 185 187 189 187 182 174 175 176 179 179 182 184 186 187 192 193 196 208 220 230 246 258
171 160 166 188 207 227 194 213 235 205 223 234 241 239 229 212 202 203 196 195 191 186 185 183 185 186 185 186 189 190 190 188 186 183 184 184 185 190 193 191 195 196 197 197 203 219 232 238 250
198 196 204 205 207 206 189 215 211 107 281 262 262 251 229 208 205 208 202 197 194 189 187 186 187 187 186 186 188 189 190 191 192 190 188 191 193 194 191 195 199 201 202 203 207 220 235 245 253
190 208 240 229 185 206 206 216 234 221 267 284 300 324 263 245 224 215 204 196 193 188 188 189 186 186 187 186 185 188 189 191 190 189 191 192 190 187 189 194 197 199 204 210 216 228 238 252 262
210 182 193 202 196 215 215 221 223 204 227 255 311 314 308 284 251 205 196 194 192 185 183 182 182 183 185 184 184 185 187 189 189 187 189 188 186 183 184 191 193 195 203 209 219 235 245 257 266
170 184 207 207 245 229 221 220 170 223 227 228 255 316 311 288 251 199 194 184 175 161 165 169 175 175 179 182 182 182 183 184 186 187 189 186 181 182 186 189 191 196 206 215 225 241 249 259 271
207 202 198 209 219 239 244 243 68 304 288 242 274 331 341 330 313 17 119 132 137 144 151 162 171 172 176 179 179 181 177 179 183 185 185 182 180 181 185 186 191 199 209 220 232 246 252 262 272
Height
1504 1506 1509 1513 1512 1505 1496 1490 1492 1495 1497 1499 1500 1500 1498 1498 1500 1505 1505 1504 1506 1509 1511 1513 1515 1518 1520 1521 1523 1524 1526 1527 1528 1529 1530 1530 1531 1531 1532 1532 1533 1533 1533 1533 1534 1534 1534 1534 1533
1504 1506 1510 1511 1504 1498 1490 1488 1492 1492 1495 1499 1500 1500 1499 1500 1502 1502 1502 1503 1506 1509 1511 1513 1515 1518 1519 1521 1523 1524 1526 1527 1528 1529 1530 1531 1531 1532 1532 1532 1533 1533 1533 1534 1534 1534 1534 1534 1533
1503 1505 1509 1504 1497 1488 1484 1486 1488 1493 1497 1498 1499 1500 1500 1500 1501 1502 1502 1503 1507 1509 1512 1513 1515 1517 1519 1521 1523 1524 1526 1527 1528 1529 1530 1530 1531 1531 1532 1532 1533 1533 1533 1533 1534 1534 1533 1533 1533
1503 1506 1506 1500 1490 1484 1483 1486 1490 1493 1496 1497 1498 1498 1500 1500 1500 1501 1501 1504 1507 1509 1512 1513 1515 1517 1519 1521 1523 1524 1525 1527 1528 1529 1530 1530 1531 1531 1532 1532 1532 1533 1533 1533 1533 1533 1533 1533 1533
1501 1502 1498 1493 1486 1484 1487 1490 1491 1490 1492 1495 1497 1496 1498 1499 1498 1500 1502 1505 1507 1509 1511 1513 1515 1517 1519 1521 1522 1524 1525 1526 1528 1529 1529 1530 1531 1531 1531 1532 1532 1532 1533 1533 1533 1532 1532 1532 1532
1500 1497 1491 1486 1482 1484 1487 1490 1491 1490 1491 1494 1496 1495 1497 1498 1498 1500 1502 1505 1507 1509 1511 1513 1515 1517 1519 1521 1522 1524 1525 1526 1527 1528 1529 1530 1530 1531 1531 1531 1532 1532 1532 1532 1532 1532 1531 1531 1531
1496 1492 1484 1480 1480 1482 1486 1489 1489 1489 1490 1492 1494 1494 1496 1498 1498 1500 1502 1504 1507 1509 1511 1513 1515 1517 1519 1520 1522 1523 1524 1525 1526 1527 1528 1529 1530 1530 1530 1531 1531 1531 1531 1531 1531 1531 1531 1530 1530
1492 1490 1483 1480 1479 1480 1484 1487 1488 1489 1489 1492 1494 1493 1494 1497 1497 1499 1502 1504 1506 1508 1510 1512 1515 1516 1518 1520 1521 1523 1524 1525 1526 1527 1528 1528 1529 1529 1530 1530 1530 1530 1530 1530 1530 1530 1529 1529 1529
1491 1489 1479 1477 1478 1478 1483 1485 1487 1488 1489 1490 1491 1492 1493 1494 1496 1499 1501 1503 1505 1507 1509 1512 1513 1515 1517 1519 1520 1522 1523 1524 1525 1526 1527 1528 1528 1528 1529 1529 1529 1529 1529 1529 1529 1529 1528 1528 1528
1488 1482 1475 1476 1477 1478 1482 1483 1485 1487 1487 1488 1489 1490 1491 1493 1495 1497 1499 1501 1503 1506 1508 1510 1512 1514 1516 1518 1519 1521 1522 1523 1524 1525 1526 1526 1527 1527 1528 1528 1528 1528 1528 1528 1528 1527 1527 1527 1526
1482 1477 1476 1478 1480 1480 1481 1482 1484 1484 1483 1484 1486 1488 1489 1492 1494 1497 1499 1501 1502 1505 1506 1509 1511 1513 1515 1516 1518 1520 1521 1522 1523 1524 1524 1525 1526 1526 1527 1527 1527 1527 1527 1527 1526 1526 1526 1525 1525
1479 1478 1478 1478 1480 1481 1480 1481 1482 1482 1481 1483 1485 1486 1487 1490 1492 1495 1497 1499 1501 1503 1505 1507 1509 1511 1513 1515 1517 1518 1520 1521 1522 1523 1523 1524 1524 1525 1525 1525 1526 1526 1525 1525 1525 1525 1524 1524 1523
1476 1476 1478 1479 1480 1480 1480 1480 1480 1480 1480 1481 1482 1484 1486 1488 1491 1493 1496 1497 1499 1501 1503 1505 1508 1510 1512 1514 1516 1517 1518 1520 1521 1521 1522 1522 1523 1524 1524 1524 1524 1524 1524 1524 1524 1523 1523 1523 1522
1473 1475 1477 1477 1478 1478 1478 1478 1479 1477 1478 1479 1480 1482 1484 1486 1488 1491 1493 1495 1497 1499 1501 1503 1506 1508 1510 1512 1514 1516 1517 1518 1519 1520 1521 1521 1522 1522 1523 1523 1523 1523 1523 1523 1522 1522 1521 1521 1520
1474 1474 1474 1475 1475 1476 1477 1475 1474 1475 1477 1477 1479 1480 1482 1483 1486 1487 1490 1492 1494 1497 1499 1501 1504 1506 1508 1510 1512 1514 1516 1517 1518 1519 1519 1520 1521 1521 1522 1522 1522 1522 1522 1521 1521 1521 1520 1519 1519
1471 1472 1471 1470 1472 1474 1477 1469 1470 1473 1474 1475 1476 1478 1479 1481 1483 1485 1487 1490 1492 1494 1497 1499 1501 1504 1506 1508 1510 1512 1514 1515 1517 1517 1518 1519 1519 1520 1520 1520 1520 1520 1520 1520 1520 1519 1519 1518 1517
1468 1466 1465 1468 1469 1470 1471 1466 1468 1471 1472 1473 1474 1475 1477 1478 1480 1482 1484 1486 1489 1491 1494 1496 1499 1501 1504 1506 1508 1510 1512 1514 1515 1516 1517 1517 1518 1518 1519 1519 1519 1519 1519 1519 1518 1518 1517 1517 1516
1462 1462 1463 1464 1467 1468 1467 1465 1467 1470 1471 1471 1472 1473 1474 1476 1477 1479 1481 1483 1486 1488 1491 1494 1496 1499 1501 1504 1506 1508 1510 1512 1513 1514 1515 1516 1516 1517 1517 1517 1518 1517 1517 1517 1517 1516 1516 1515 1514
1460 1461 1461 1462 1466 1467 1464 1464 1465 1468 1469 1469 1470 1471 1472 1473 1475 1476 1478 1480 1482 1485 1488 1490 1493 1496 1498 1501 1503 1506 1508 1510 1511 1513 1514 1514 1515 1515 1516 1516 1516 1516 1516 1515 1515 1515 1514 1513 1512
1461 1462 1461 1464 1466 1466 1463 1463 1464 1466 1467 1467 1468 1469 1470 1471 1472 1473 1475 1477 1479 1481 1485 1488 1490 1493 1496 1499 1501 1504 1506 1508 1509 1511 1511 1512 1513 1513 1514 1514 1514 1514 1514 1514 1513 1513 1512 1512 1511
1460 1460 1460 1463 1466 1465 1465 1460 1460 1462 1465 1466 1467 1467 1468 1468 1469 1470 1472 1474 1476 1478 1481 1484 1487 1490 1493 1496 1499 1501 1504 1505 1507 1508 1509 1510 1511 1511 1512 1512 1512 1512 1512 1512 1512 1511 1511 1510 1510
1458 1458 1461 1463 1464 1462 1463 1458 1453 1456 1460 1462 1464 1465 1465 1466 1467 1468 1469 1470 1472 1475 1478 1481 1484 1487 1490 1493 1496 1498 1500 1502 1504 1505 1507 1508 1508 1509 1510 1511 1511 1511 1511 1511 1510 1510 1509 1509 1508
1458 1460 1460 1461 1462 1464 1460 1460 1448 1454 1455 1457 1460 1462 1463 1463 1464 1465 1466 1468 1470 1472 1475 1478 1481 1484 1487 1490 1493 1495 1498 1500 1502 1503 1504 1505 1506 1507 1508 1509 1509 1509 1509 1509 1509 1508 1508 1507 1506
1461 1461 1462 1462 1462 1464 1454 1455 1447 1450 1453 1453 1456 1459 1460 1461 1462 1463 1464 1465 1467 1469 1471 1474 1477 1481 1484 1487 1490 1492 1495 1497 1499 1500 1502 1503 1504 1505 1506 1506 1507 1507 1507 1507 1507 1506 1505 1505 1504
1459 1460 1462 1462 1461 1452 1452 1453 1448 1450 1453 1453 1454 1456 1458 1459 1459 1460 1461 1461 1463 1465 1468 1471 1474 1477 1480 1483 1486 1489 1492 1494 1496 1497 1499 1500 1501 1502 1503 1504 1504 1505 1505 1505 1504 1504 1503 1503 1502
1457 1456 1455 1453 1449 1447 1455 1450 1448 1452 1453 1454 1455 1455 1456 1457 1457 1458 1458 1459 1460 1462 1464 1467 1470 1473 1476 1479 1483 1485 1488 1491 1493 1494 1496 1497 1499 1500 1500 1501 1502 1502 1502 1502 1502 1501 1501 1500 1499
1457 1456 1457 1455 1454 1451 1445 1447 1449 1451 1452 1453 1453 1454 1454 1455 1455 1456 1456 1457 1458 1460 1461 1464 1466 1469 1473 1476 1479 1482 1485 1487 1489 1491 1493 1494 1496 1497 1498 1498 1499 1499 1499 1499 1499 1499 1498 1497 1496
1457 1456 1458 1456 1451 1444 1441 1442 1442 1446 1448 1450 1452 1452 1453 1454 1454 1454 1455 1455 1456 1458 1460 1462 1464 1467 1470 1473 1476 1479 1481 1484 1486 1488 1490 1491 1492 1493 1494 1495 1496 1496 1496 1496 1496 1496 1495 1494 1493
1458 1460 1457 1454 1451 1443 1440 1441 1444 1445 1447 1449 1451 1452 1453 1453 1453 1453 1453 1454 1455 1456 1458 1460 1462 1465 1467 1470 1473 1476 1478 1481 1483 1484 1486 1488 1489 1490 1491 1492 1493 1493 1493 1493 1493 1493 1492 1491 1490
1456 1456 1457 1455 1455 1449 1441 1445 1447 1447 1448 1450 1451 1451 1452 1452 1452 1452 1452 1452 1453 1454 1456 1458 1460 1462 1464 1467 1470 1472 1475 1477 1479 1481 1483 1485 1486 1487 1488 1489 1490 1490 1490 1490 1490 1489 1489 1488 1486